Вернуться в каталог

STARLINK-37237

АктивенСвязьVLEO
NORAD 69185·PAYLOAD·🇺🇸 United States

Запущен May 25, 2026 с Cape Canaveral Space Force Station

Loading…

Ближайшие Пролёты (ближайшие 24 часа)

TLE

СвежийSource: CelesTrak SupGP

Эпоха: Sep 14, 2026, 23:08 UTC

1 69185C 26114D   26257.96437500  .00005582  00000+0  16508-3 0  2578
2 69185  53.1560 139.8839 0001202  87.1379 233.6188 15.34354223    16

Отслеживайте STARLINK-37237 в реальном времени с AllMySat

Download on the App Store